TimeCST,TemperatureF,Dew PointF,Humidity,Sea Level PressureIn,VisibilityMPH,Wind Direction,Wind SpeedMPH,Gust SpeedMPH,PrecipitationIn,Events,Conditions,WindDirDegrees,DateUTC
12:52 AM,26.1,19.9,78,30.39,10.0,SSE,8.1,-,N/A,,Clear,160,2012-12-30 06:52:00
1:52 AM,26.1,19.9,78,30.38,10.0,SSE,8.1,-,N/A,,Partly Cloudy,150,2012-12-30 07:52:00
2:52 AM,25.0,19.0,78,30.39,10.0,SSE,8.1,-,N/A,,Partly Cloudy,150,2012-12-30 08:52:00
3:52 AM,25.0,19.0,78,30.37,10.0,SSE,6.9,-,N/A,,Scattered Clouds,150,2012-12-30 09:52:00
4:52 AM,24.1,19.0,81,30.35,10.0,SSE,5.8,-,N/A,,Scattered Clouds,160,2012-12-30 10:52:00
5:52 AM,25.0,19.9,81,30.36,10.0,SSE,9.2,-,N/A,,Mostly Cloudy,150,2012-12-30 11:52:00
6:52 AM,24.8,19.4,80,30.33,10.0,SE,8.1,-,N/A,,Overcast,140,2012-12-30 12:52:00
7:52 AM,25.0,19.9,81,30.38,10.0,SE,5.8,-,N/A,,Mostly Cloudy,130,2012-12-30 13:52:00
8:52 AM,30.0,24.1,79,30.38,10.0,SSE,6.9,-,N/A,,Overcast,150,2012-12-30 14:52:00
9:52 AM,32.0,25.0,75,30.38,10.0,South,10.4,-,N/A,,Overcast,180,2012-12-30 15:52:00
10:52 AM,35.1,25.0,67,30.38,10.0,South,16.1,-,N/A,,Overcast,170,2012-12-30 16:52:00
11:52 AM,37.9,24.1,57,30.35,10.0,South,16.1,-,N/A,,Overcast,170,2012-12-30 17:52:00
12:52 PM,39.0,23.0,53,30.30,10.0,South,16.1,-,N/A,,Overcast,170,2012-12-30 18:52:00
1:52 PM,39.9,21.9,49,30.26,10.0,South,13.8,-,N/A,,Overcast,170,2012-12-30 19:52:00
2:52 PM,39.0,21.0,49,30.25,10.0,South,17.3,-,N/A,,Overcast,170,2012-12-30 20:52:00
3:52 PM,39.0,21.0,49,30.24,10.0,SSE,12.7,-,N/A,,Overcast,160,2012-12-30 21:52:00
4:52 PM,37.9,21.9,53,30.23,10.0,SSE,12.7,-,N/A,,Overcast,160,2012-12-30 22:52:00
5:52 PM,37.0,23.0,57,30.21,10.0,SSE,13.8,-,N/A,,Overcast,150,2012-12-30 23:52:00
6:52 PM,37.9,23.0,55,30.21,10.0,SSE,13.8,-,N/A,,Overcast,160,2012-12-31 00:52:00
7:52 PM,37.9,23.0,55,30.22,10.0,SSE,12.7,-,N/A,,Overcast,160,2012-12-31 01:52:00
8:52 PM,37.9,23.0,55,30.19,10.0,SSE,10.4,-,N/A,,Overcast,160,2012-12-31 02:52:00
9:52 PM,37.9,23.0,55,30.17,10.0,SSE,11.5,-,N/A,,Overcast,160,2012-12-31 03:52:00
10:52 PM,37.9,25.0,60,30.17,10.0,South,15.0,24.2,N/A,,Overcast,180,2012-12-31 04:52:00
11:52 PM,37.0,27.0,67,30.17,10.0,South,19.6,-,N/A,,Overcast,180,2012-12-31 05:52:00